マクノート彗星

353P/McNaught (2009)

English version
Home page
Updated on September 2, 2017

---------------------------------------------------------------------

・ プロフィール

符号 353P/2009 S2
発見日 2009年9月20日
発見光度 18.7等
発見者 R. H. McNaught (Siding Spring Survey)

・ 軌道要素

Epoch 2009 June 18.0 TT = JDT 2455000.5
T 2009 June 23.64022 TT                                 MPCW
q   2.2036380            (2000.0)            P               Q
n   0.11609099     Peri.  230.37511     +0.91102981     +0.07378437
a   4.1616961      Node   121.61344     -0.02664947     +0.99233892
e   0.4704952      Incl.   28.44910     -0.41147842     +0.09909257
P   8.49
From 71 observations 2008 May 30-2017 June 20, mean residual 0".5.

・ 光度変化

        m1 = 14.0 + 5 logΔ + 10.0 log r

---------------------------------------------------------------------

軌道要素はM.P.E.C. 2017-M28に掲載されたものです。
光度グラフはComet for Windowsで作成したものです。

---------------------------------------------------------------------

Copyright(C) Seiichi Yoshida (comet@aerith.net). All rights reserved.